#timestamp,LO_Frequency,Hit,StdDev 
1509325215.7,286046990.0,N
1509325235.6,286046987.2,Y
1509325255.4,286046996.7,P
1509325275.3,286046997.2,N
1509325295.1,286046995.8,N
1509325296.0,286046995.8,N
1509325315.8,286046992.8,N
1509325335.7,286046991.9,Y
1509325355.5,286046999.0,P
1509325375.3,286046998.8,N
1509325395.2,286047000.9,N
1509325415.9,286047000.7,N
1509325435.7,286046998.8,N
1509325455.6,286046998.2,N
1509325475.4,286047001.9,N
1509325495.2,286047004.4,N
1509325515.1,286047007.5,N
1509325516.0,286047007.5,N
1509325535.8,286047005.5,N
1509325555.6,286047004.9,N
1509325575.5,286047008.8,N
1509325595.3,286047007.5,N
1509325615.1,286047010.2,N
1509325635.9,286047010.5,N
1509325655.7,286047006.0,N
1509325675.5,286047003.5,N
1509325695.4,286047005.2,N
1509325715.2,286047003.6,N
1509325735.0,286047005.6,N
1509325735.9,286047005.6,N
1509325755.8,286047003.9,N
1509325775.6,286047004.5,N
1509325795.4,286047004.8,N
1509325815.3,286047006.5,N
1509325835.1,286047005.4,N
1509325855.8,286047005.2,N
1509325875.7,286047007.6,N
1509325895.5,286047003.6,N
1509325915.3,286047001.7,N
1509325935.2,286047004.3,N
1509325955.0,286047005.2,N
1509325955.9,286047005.2,N
1509325975.7,286047006.4,N
1509325995.6,286047005.0,N
1509326015.4,286047006.6,Y
1509326035.3,286047000.5,P
1509326055.1,286046999.1,N
1509326056.0,286046999.1,N
1509326075.8,286046996.7,N
1509326095.7,286046998.1,N
1509326115.5,286047000.5,N
1509326135.3,286047002.7,N
1509326155.2,286047004.8,N
1509326175.9,286047006.0,N
1509326195.7,286047002.0,N
1509326215.6,286047003.6,N
1509326235.4,286047001.6,N
1509326255.2,286047000.5,N
1509326275.1,286047000.1,N
1509326276.0,286047000.1,N
1509326295.8,286047000.0,N
1509326315.6,286047002.3,N
1509326335.5,286047000.2,N
1509326355.3,286047000.2,N
1509326375.1,286046999.6,N
1509326395.9,286046995.0,N
1509326415.7,286046997.7,N
1509326435.5,286047002.8,N
1509326455.4,286047001.6,N
1509326475.2,286047002.9,N
1509326495.0,286047004.5,N
1509326495.9,286047004.5,N
1509326515.8,286047007.2,N
1509326535.6,286047005.7,N
1509326555.4,286047005.6,N
1509326575.3,286047004.3,N
1509326595.1,286047002.9,N
1509326615.8,286047003.9,N
1509326635.7,286047005.9,N
1509326655.5,286047002.9,N
1509326675.3,286046999.6,N
1509326695.2,286046995.2,N
1509326715.0,286046995.8,N
1509326715.9,286046995.8,N
1509326735.8,286046995.9,N
1509326755.6,286046994.3,N
1509326775.4,286046993.4,N
1509326795.3,286046993.0,N
1509326815.1,286046995.3,N
1509326816.0,286046995.3,N
1509326835.8,286046998.0,N
1509326855.7,286046997.2,N
1509326875.5,286046994.9,N
1509326895.3,286046999.6,N
1509326915.2,286046999.3,N
1509326935.9,286046997.6,N
1509326955.7,286046995.1,N
1509326975.6,286046996.1,N
1509326995.4,286046991.3,N
1509327015.2,286046985.3,Y
1509327035.1,286046988.2,P
1509327036.0,286046988.2,N
1509327055.8,286046986.4,N
1509327075.7,286046984.8,Y
1509327095.5,286046990.5,P
1509327115.3,286046987.4,P
1509327135.2,286046988.7,P
1509327155.9,286046987.9,Y
1509327175.7,286046997.9,P
1509327195.6,286046995.1,N
1509327215.4,286046996.4,N
1509327235.2,286046997.4,N
1509327255.1,286046992.1,N
1509327256.0,286046992.1,N
1509327275.8,286046993.2,N
1509327295.6,286046990.2,Y
1509327315.5,286046996.8,P
1509327335.3,286046996.6,N
1509327355.1,286046996.5,N
1509327375.9,286046995.4,Y
1509327395.7,286046999.5,P
1509327415.6,286046998.8,N
1509327435.4,286046999.3,N
1509327455.2,286046993.4,Y
1509327475.1,286046993.9,P
1509327476.0,286046993.9,N
1509327495.8,286046995.5,N
1509327515.7,286046992.4,Y
1509327535.5,286046993.4,P
1509327555.3,286046992.7,P
1509327575.2,286046992.8,P
1509327595.9,286046990.5,Y
1509327615.7,286046996.6,P
1509327635.6,286046997.7,N
1509327655.4,286046991.5,P
1509327675.2,286046984.1,Y
1509327695.1,286046987.2,P
1509327696.0,286046987.2,P
1509327715.8,286046983.8,P
1509327735.7,286046980.7,Y
1509327755.5,286046992.8,P
1509327775.3,286046989.0,P
1509327795.2,286046988.5,P
1509327815.9,286046989.3,Y
1509327835.7,286046997.7,P
1509327855.6,286046994.1,N
1509327875.4,286046996.0,N
1509327895.2,286046999.5,N
1509327915.1,286046998.5,N
1509327916.0,286046998.5,N
1509327935.8,286047000.6,N
1509327955.7,286047005.6,N
1509327975.5,286047008.7,N
1509327995.3,286047011.6,N
1509328015.2,286047014.7,N
1509328035.9,286047014.8,N
1509328055.7,286047018.0,N
1509328075.6,286047023.4,N
1509328095.4,286047024.1,N
1509328115.2,286047024.9,N
1509328135.1,286047026.9,N
1509328136.0,286047026.9,N
1509328155.8,286047030.4,N
1509328175.6,286047035.6,N
1509328195.5,286047036.8,N
1509328215.3,286047039.0,N
1509328235.1,286047042.5,N
1509328255.9,286047041.3,N
1509328275.7,286047048.8,Y
1509328295.5,286047035.7,P
1509328315.4,286047033.4,P
1509328335.2,286047033.4,P
1509328355.1,286047036.5,Y
1509328356.0,286047036.5,P
1509328375.8,286047013.5,P
1509328395.6,286047014.9,N
1509328415.5,286047017.0,N
1509328435.3,286047015.7,N
1509328455.1,286047018.3,N
1509328475.9,286047018.9,N
1509328495.7,286047018.5,N
1509328515.5,286047020.2,N
1509328535.4,286047019.9,N
1509328555.2,286047019.5,N
1509328575.0,286047020.1,Y
1509328575.9,286047020.1,P
1509328595.8,286047000.8,P
1509328615.6,286047004.4,N
1509328635.4,286047006.7,N
1509328655.3,286047004.5,N
1509328675.1,286047002.1,N
1509328695.8,286047003.5,N
1509328715.7,286046995.7,N
1509328735.5,286046988.8,N
1509328755.4,286046987.8,N
1509328775.2,286046987.2,N
1509328795.0,286046983.3,N
1509328795.9,286046983.3,N
